Hourly Data Report for November 08, 2017

All times are specified in Local Standard Time (LST). Add 1 hour to adjust for Daylight Saving Time where and when it is observed.

SUDBURY A
ONTARIO

46°37'32.000" N
80°47'52.000" W
348.40 m
6068153
71730
YSB

Download Data

Hourly Data (November 2017)
Hourly Data Report for November 8, 2017
Temp Definition
°C
Dew Point Temp Definition
°C
Rel Hum Definition
%
Wind Dir Definition
10's deg

Wind Spd Definition
km/h
Visibility Definition
km
Stn Press Definition
kPa
Hmdx Definition


Wind Chill Definition


Weather Definition


TIME
00:00 Legend Double Dagger -3.9 -6.3 83 22 14 24.1 98.03   -9 LegendNANA
01:00 Legend Double Dagger -4.8 -7.4 82 23 10 24.1 98.03   -9 Mainly Clear
02:00 Legend Double Dagger -4.3 -8.3 74 27 10 24.1 98.00   -8 LegendNANA
03:00 Legend Double Dagger -4.7 -8.7 73 26 7 24.1 98.01   -8 LegendNANA
04:00 Legend Double Dagger -5.6 -8.3 81 22 12 24.1 98.00   -11 Mostly Cloudy
05:00 Legend Double Dagger -5.8 -8.4 82 21 9 24.1 97.96   -10 LegendNANA
06:00 Legend Double Dagger -5.6 -8.4 81 21 11 24.1 97.93   -10 LegendNANA
07:00 Legend Double Dagger -4.5 -7.4 80 20 12 32.2 97.90   -9 Mostly Cloudy
08:00 Legend Double Dagger -3.2 -6.4 79 17 8 32.2 97.91   -6 LegendNANA
09:00 Legend Double Dagger -2.0 -5.0 80 21 7 32.2 97.90   -5 LegendNANA
10:00 Legend Double Dagger -0.2 -4.9 71 25 12 32.2 97.88   -4 Mostly Cloudy
11:00 Legend Double Dagger 1.6 -4.4 64 21 21 32.2 97.84     LegendNANA
12:00
13:00 Legend Double Dagger 2.8 -4.7 58 24 30 32.2 97.70     Mostly Cloudy
14:00 Legend Double Dagger 3.1 -4.1 59 22 27 32.2 97.65     LegendNANA
15:00 Legend Double Dagger 3.9 -3.7 58 23 25 32.2 97.63     LegendNANA
16:00 Legend Double Dagger 2.9 -4.1 60 23 19 32.2 97.61     Cloudy
17:00 Legend Double Dagger 2.3 -4.0 63 23 15 32.2 97.61     LegendNANA
18:00 Legend Double Dagger 1.6 -2.9 72 23 18 32.2 97.62     LegendNANA
19:00 Legend Double Dagger 1.1 -3.0 74 24 11 24.1 97.64     Cloudy
20:00 Legend Double Dagger 0.5 -3.7 73 24 10 24.1 97.62     LegendNANA
21:00 Legend Double Dagger 0.5 -3.7 73 24 9 24.1 97.63     LegendNANA
22:00 Legend Double Dagger 0.6 -3.9 72 23 8 24.1 97.57     Cloudy
23:00 Legend Double Dagger 0.5 -4.4 70 24 5 24.1 97.49     LegendNANA

Notes on Data Quality.

Legend

  • E = Estimated
  • M = Missing
  • NA = Not Available
  • ‡ = Partner data that is not subject to review by the National Climate Archives
Date modified: